Meteo Giornale » Osservazioni meteo Gran Bretagna » Londra City AP

ore: 06:20 - Osservazioni Meteo Londra City AP
Lat. 51° 30' N Lon. 0° 30' W Alt. 5 metri s.l.m.

sereno Europe/London

12 °C

Sereno

Temp. 24 Ore

12 °C

20 °C

Ovest/Sud-Ovest

11.1 Km/h

Dew point 9 °C

Umidità 81 %

Visibilità  10 Km

Il sole sorge alle ore 05:55

Il sole tramonta alle ore 20:15

Data e Ora Cielo e Fenomeni T °C DP °C Um. % Pres. hPa Vis. km Vento km/h
Oggi h: 06:20 sereno Sereno 12 9 81 1022 10 O/SO 11.1
Oggi h: 05:50 sereno Sereno 12 9 81 1022 10 O/SO 13
Oggi h: 05:20 sereno Sereno 12 9 81 1022 10 SO 13
Oggi h: 04:50 sereno Sereno 12 9 81 1022 10 O/SO 11.1
Oggi h: 04:20 sereno Sereno 13 10 81 1022 10 O/SO 13
Oggi h: 03:50 sereno Sereno 13 10 81 1022 10 O/SO 16.7
Oggi h: 03:20 sereno Sereno 13 10 81 1022 10 O/SO 18.5
Oggi h: 02:50 sereno Sereno 13 10 81 1021 10 O/SO 18.5
Oggi h: 02:20 sereno Sereno 13 9 76 1021 10 SO 16.7
Oggi h: 01:50 sereno Sereno 13 9 76 1021 10 O/SO 14.8
Oggi h: 01:20 sereno Sereno 14 9 71 1021 10 O/SO 16.7
Oggi h: 00:50 sereno Sereno 14 9 71 1021 10 O/SO 18.5
Oggi h: 00:20 sereno Sereno 14 9 71 1021 10 O/SO 14.8
Ieri h: 23:50 sereno Sereno 15 9 67 1021 10 O/SO 16.7
Ieri h: 23:20 sereno Sereno 15 9 67 1021 10 O/SO 16.7
Ieri h: 22:50 sereno Sereno 16 9 63 1020 10 O 24
Ieri h: 22:20 sereno Sereno 16 8 58 1020 10 O 18.5
Ieri h: 21:50 sereno Sereno 17 8 55 1020 10 O 22.2
Ieri h: 21:20 sereno Sereno 17 8 55 1020 10 O/SO 22.2
Ieri h: 20:50 sereno Sereno 17 7 51 1020 10 O 29.6
Ieri h: 20:20 sereno Sereno 18 8 51 1019 10 O 25.9
Ieri h: 19:50 poco_nuvoloso Poco Nuvoloso 18 7 48 1019 10 O/SO 27.8
Ieri h: 19:20 sereno Sereno 18 8 51 1019 10 O 29.6
Ieri h: 18:50 sereno Sereno 19 7 45 1018 10 O 31.5
Ieri h: 18:20 sereno Sereno 19 8 48 1018 10 O 31.5
Ieri h: 17:50 sereno Sereno 19 8 48 1018 10 O 29.6
Ieri h: 17:20 sereno Sereno 19 7 45 1018 10 O 35.2
Ieri h: 16:50 sereno Sereno 20 8 45 1018 10 O 27.8
Ieri h: 16:20 sereno Sereno 20 7 42 1018 10 O/SO 27.8
Ieri h: 15:50 sereno Sereno 20 8 45 1018 10 O/SO 27.8
Ieri h: 15:20 sereno Sereno 19 8 48 1017 10 O 27.8
Ieri h: 14:50 sereno Sereno 19 8 48 1017 10 O/SO 33.3
Ieri h: 14:20 sereno Sereno 19 8 48 1017 10 O 27.8
Ieri h: 13:50 sereno Sereno 19 9 52 1017 10 O 29.6
Ieri h: 13:20 poco_nuvoloso Poco Nuvoloso 19 9 52 1017 10 O 27.8
Ieri h: 12:50 sereno Sereno 19 10 55 1017 10 O/SO 24
Ieri h: 12:20 poco_nuvoloso Poco Nuvoloso 19 9 52 1017 10 O 25.9
Ieri h: 11:50 poco_nuvoloso Poco Nuvoloso 18 9 55 1017 10 O 27.8
Ieri h: 11:20 nuvoloso Nuvoloso 18 10 59 1017 10 O/SO 29.6
Ieri h: 10:50 poco_nuvoloso Poco Nuvoloso 18 11 63 1017 10 O/SO 25.9
Ieri h: 10:20 sereno Sereno 17 10 63 1017 10 O/SO 24
Ieri h: 09:50 nuvoloso Nuvoloso 17 10 63 1017 10 O/SO 25.9
Ieri h: 09:20 poco_nuvoloso Poco Nuvoloso 16 11 72 1017 10 O/SO 24
Ieri h: 08:50 nuvoloso Nuvoloso 16 11 72 1016 10 O 24
Ieri h: 08:20 poco_nuvoloso Poco Nuvoloso 16 11 72 1016 10 O/SO 18.5
Ieri h: 07:50 poco_nuvoloso Poco Nuvoloso 15 11 76 1016 10 O/SO 20.3
Ieri h: 07:20 molto_nuvoloso Molto Nuvoloso 14 12 87 1015 10 O/SO 20.3
Ieri h: 06:50 molto_nuvoloso Molto Nuvoloso 14 12 87 1015 10 O/SO 20.3